Weather History for Marshfield, MA

Change the Weather History Date:

Tuesday, January 29, 2013

  Actual Average (KPYM) Record (KPYM)
Temperature  
Mean Temperature 34 °F -  
Max Temperature 35 °F 37 °F 64 °F (2002)
Min Temperature 32 °F 17 °F -9 °F (2005)
Degree Days  
Heating Degree Days 32    
Moisture  
Dew Point 33 °F    
Average Humidity 97    
Maximum Humidity 100    
Minimum Humidity 87    
Precipitation  
Precipitation 0.04 in - - ()
Sea Level Pressure  
Sea Level Pressure 30.14 in    
Wind  
Wind Speed 2 mph (NW)    
Max Wind Speed 7 mph    
Max Gust Speed -    
Visibility 6 miles    
Events Fog , Rain , Snow    
Averages and records for this station are not official NWS values.
T = Trace of Precipitation, MM = Missing Value Source: NWS Daily Summary

Daily Weather History Graph

Daily Weather History Graph

Search for Another Location

Airport:

Trip Planner

Search our weather history database for the weather conditions in past years. The results will help you decide how hot, cold, wet, or windy it might be!

Date:

Astronomy

Jan. 29, 2013 Rise Set
Actual Time 6:58 AM EST 4:53 PM EST
Civil Twilight 6:28 AM EST 5:23 PM EST
Nautical Twilight 5:54 AM EST 5:57 PM EST
Astronomical Twilight 5:22 AM EST 6:30 PM EST
Moon 7:50 PM EST (1/29) 7:50 AM EST (1/29)
Length of Visible Light 10h 55m
Length of Day
9h 55m
Waning Gibbous, 94% of the Moon is Illuminated
Jan 29
Waning Gibbous
Feb 3
Last Quarter
Feb 10
New
Feb 17
First Quarter
Feb 25
Full

Hourly Weather History & Observations

Time (EST) Temp. Windchill Dew Point Humidity Pressure Visibility Wind Dir Wind Speed Gust Speed Precip Events Conditions
12:15 AM 33.8 °F - 32.0 °F 93% 30.01 in 4.0 mi Calm Calm - N/A Snow Light Snow
12:35 AM 33.8 °F - 32.0 °F 93% 30.02 in 3.0 mi Calm Calm - 0.01 in Rain Light Rain
12:55 AM 33.8 °F - 32.0 °F 93% 30.02 in 3.0 mi Calm Calm - 0.01 in Snow Light Snow
1:15 AM 33.8 °F - 32.0 °F 93% 30.02 in 3.0 mi Calm Calm - N/A   Overcast
1:35 AM 33.8 °F - 32.0 °F 93% 30.03 in 3.0 mi Calm Calm - N/A   Overcast
1:55 AM 33.8 °F - 32.0 °F 93% 30.04 in 6.0 mi Calm Calm - 0.01 in   Overcast
2:15 AM 33.8 °F - 32.0 °F 93% 30.03 in 2.0 mi Calm Calm - 0.01 in   Light Drizzle
2:35 AM 33.8 °F - 32.0 °F 93% 30.04 in 2.0 mi Calm Calm - 0.01 in   Overcast
2:55 AM 33.8 °F 30.8 °F 32.0 °F 93% 30.04 in 1.5 mi West 3.5 mph - 0.01 in   Overcast
3:15 AM 33.8 °F - 32.0 °F 93% 30.04 in 3.0 mi Calm Calm - N/A   Overcast
3:35 AM 33.8 °F 30.8 °F 32.0 °F 93% 30.04 in 5.0 mi WNW 3.5 mph - N/A   Overcast
3:55 AM 33.8 °F 30.8 °F 32.0 °F 93% 30.05 in 7.0 mi WNW 3.5 mph - N/A   Overcast
4:15 AM 33.8 °F 28.6 °F 32.0 °F 93% 30.05 in 5.0 mi WNW 5.8 mph - 0.01 in   Overcast
4:35 AM 33.8 °F 29.6 °F 32.0 °F 93% 30.06 in 3.0 mi WNW 4.6 mph - 0.01 in   Overcast
4:55 AM 32.0 °F 26.4 °F 32.0 °F 100% 30.06 in 5.0 mi WNW 5.8 mph - 0.01 in   Overcast
5:15 AM 32.0 °F 27.5 °F 32.0 °F 100% 30.07 in 9.0 mi WNW 4.6 mph - N/A   Overcast
5:35 AM 32.0 °F 26.4 °F 32.0 °F 100% 30.07 in 10.0 mi WNW 5.8 mph - N/A   Overcast
5:55 AM 32.0 °F 26.4 °F 32.0 °F 100% 30.08 in 10.0 mi WNW 5.8 mph - N/A   Overcast
6:15 AM 32.0 °F 27.5 °F 32.0 °F 100% 30.09 in 10.0 mi WNW 4.6 mph - N/A   Overcast
6:35 AM 32.0 °F 26.4 °F 32.0 °F 100% 30.10 in 10.0 mi WNW 5.8 mph - N/A   Overcast
6:55 AM 32.0 °F 26.4 °F 32.0 °F 100% 30.11 in 10.0 mi WNW 5.8 mph - N/A   Overcast
7:15 AM 32.0 °F 27.5 °F 32.0 °F 100% 30.12 in 10.0 mi WNW 4.6 mph - N/A   Overcast
7:35 AM 32.0 °F 25.6 °F 32.0 °F 100% 30.13 in 10.0 mi WNW 6.9 mph - N/A   Overcast
7:55 AM 32.0 °F 25.6 °F 32.0 °F 100% 30.14 in 5.0 mi WNW 6.9 mph - N/A   Overcast
8:15 AM 32.0 °F 28.7 °F 32.0 °F 100% 30.14 in 10.0 mi West 3.5 mph - N/A   Overcast
8:35 AM 32.0 °F 27.5 °F 32.0 °F 100% 30.15 in 10.0 mi WNW 4.6 mph - N/A   Overcast
8:55 AM 32.0 °F 25.6 °F 32.0 °F 100% 30.16 in 10.0 mi WNW 6.9 mph - N/A   Overcast
9:15 AM 32.0 °F - 32.0 °F 100% 30.16 in 10.0 mi Calm Calm - N/A   Overcast
9:35 AM 32.0 °F 27.5 °F 32.0 °F 100% 30.17 in 10.0 mi WNW 4.6 mph - N/A   Overcast
9:55 AM 32.0 °F 27.5 °F 32.0 °F 100% 30.16 in 10.0 mi North 4.6 mph - N/A   Overcast
10:15 AM 32.0 °F 27.5 °F 30.2 °F 93% 30.18 in 10.0 mi NW 4.6 mph - N/A   Overcast
10:35 AM 32.0 °F 28.7 °F 32.0 °F 100% 30.18 in 7.0 mi NW 3.5 mph - N/A   Overcast
10:55 AM 33.8 °F 30.8 °F 32.0 °F 93% 30.18 in 10.0 mi NNW 3.5 mph - N/A   Overcast
11:15 AM 33.8 °F 29.6 °F 32.0 °F 93% 30.18 in 10.0 mi NNW 4.6 mph - N/A   Overcast
11:35 AM 33.8 °F 27.7 °F 32.0 °F 93% 30.18 in 10.0 mi NNW 6.9 mph - N/A   Overcast
11:55 AM 33.8 °F 28.6 °F 32.0 °F 93% 30.18 in 10.0 mi NNW 5.8 mph - N/A   Overcast
12:15 PM 33.8 °F 29.6 °F 32.0 °F 93% 30.18 in 10.0 mi NNW 4.6 mph - N/A   Overcast
12:35 PM 33.8 °F 28.6 °F 32.0 °F 93% 30.17 in 10.0 mi NW 5.8 mph - N/A   Overcast
12:55 PM 33.8 °F 27.7 °F 32.0 °F 93% 30.17 in 10.0 mi NNW 6.9 mph - N/A   Overcast
1:15 PM 33.8 °F 30.8 °F 32.0 °F 93% 30.17 in 9.0 mi NNW 3.5 mph - N/A   Overcast
1:35 PM 33.8 °F 29.6 °F 32.0 °F 93% 30.17 in 10.0 mi NW 4.6 mph - N/A   Overcast
1:55 PM 35.6 °F - 32.0 °F 87% 30.16 in 10.0 mi Calm Calm - N/A   Overcast
2:15 PM 35.6 °F 31.7 °F 33.8 °F 93% 30.18 in 5.0 mi WNW 4.6 mph - N/A   Overcast
2:35 PM 35.6 °F - 33.8 °F 93% 30.18 in 9.0 mi Calm Calm - N/A   Overcast
2:55 PM 35.6 °F 32.8 °F 33.8 °F 93% 30.18 in 9.0 mi West 3.5 mph - N/A   Overcast
3:15 PM 35.6 °F 32.8 °F 33.8 °F 93% 30.19 in 3.0 mi West 3.5 mph - N/A   Overcast
3:35 PM 35.6 °F - 33.8 °F 93% 30.19 in 2.5 mi Calm Calm - N/A   Overcast
3:55 PM 35.6 °F - 33.8 °F 93% 30.18 in 7.0 mi Calm Calm - N/A   Overcast
4:15 PM 33.8 °F - 33.8 °F 100% 30.18 in 9.0 mi Calm Calm - N/A   Overcast
4:35 PM 33.8 °F - 33.8 °F 100% 30.18 in 10.0 mi Calm Calm - N/A   Overcast
4:55 PM 33.8 °F - 33.8 °F 100% 30.18 in 7.0 mi Calm Calm - N/A   Overcast
5:15 PM 33.8 °F - 33.8 °F 100% 30.19 in 5.0 mi Calm Calm - N/A   Overcast
5:35 PM 33.8 °F - 33.8 °F 100% 30.19 in 5.0 mi Calm Calm - N/A   Overcast
5:55 PM 33.8 °F - 33.8 °F 100% 30.19 in 6.0 mi Calm Calm - N/A   Overcast
6:15 PM 33.8 °F - 33.8 °F 100% 30.19 in 8.0 mi Calm Calm - N/A   Overcast
6:35 PM 33.8 °F - 33.8 °F 100% 30.20 in 6.0 mi Calm Calm - N/A   Overcast
6:55 PM 33.8 °F - 33.8 °F 100% 30.20 in 5.0 mi Calm Calm - N/A   Overcast
7:15 PM 33.8 °F - 33.8 °F 100% 30.20 in 5.0 mi Calm Calm - N/A   Overcast
7:35 PM 33.8 °F - 33.8 °F 100% 30.21 in 4.0 mi Calm Calm - N/A   Overcast
7:55 PM 33.8 °F - 32.0 °F 93% 30.19 in 5.0 mi Calm Calm - N/A   Overcast
8:15 PM 33.8 °F - 33.8 °F 100% 30.20 in 2.5 mi Calm Calm - N/A   Overcast
8:35 PM 33.8 °F - 33.8 °F 100% 30.21 in 2.5 mi Calm Calm - N/A   Overcast
8:55 PM 33.8 °F - 33.8 °F 100% 30.20 in 2.0 mi Calm Calm - N/A   Overcast
9:15 PM 33.8 °F - 33.8 °F 100% 30.20 in 1.2 mi Calm Calm - N/A   Overcast
9:35 PM 33.8 °F - 33.8 °F 100% 30.22 in 0.5 mi Calm Calm - N/A Fog Fog
9:55 PM 33.8 °F - 33.8 °F 100% 30.20 in 0.2 mi Calm Calm - N/A Fog Fog
10:15 PM 33.8 °F - 33.8 °F 100% 30.18 in 0.2 mi Calm Calm - N/A Fog Fog
10:35 PM 33.8 °F - 33.8 °F 100% 30.18 in 0.5 mi Calm Calm - N/A   Light Drizzle
10:55 PM 33.8 °F - 33.8 °F 100% 30.18 in 0.5 mi Calm Calm - N/A   Light Drizzle
11:15 PM 33.8 °F - 33.8 °F 100% 30.17 in 0.8 mi Calm Calm - N/A   Overcast
11:35 PM 33.8 °F - 33.8 °F 100% 30.17 in 0.5 mi Calm Calm - N/A   Light Drizzle
11:55 PM 33.8 °F - 33.8 °F 100% 30.17 in 1.0 mi Calm Calm - N/A Rain Light Rain